This is the latest recevied weather packets stored in our database for station/object N5LSN. If no packets are shown the sender has not sent any weather packets the latest 10 day(s).
| Time | Temp. | Humidity | Pressure | Rain* | Wind** | Luminosity | Snow |
|---|---|---|---|---|---|---|---|
| 1777326145 | 28.33° C | 84% | 1008.8 hPa | 0 mm | - | 270 W/m² | - |
| 1777325842 | 27.78° C | 85% | 1008.8 hPa | 0 mm | - | 318 W/m² | - |
| 1777325540 | 27.78° C | 85% | 1008.8 hPa | 0 mm | - | 311 W/m² | - |
| 1777325238 | 27.78° C | 84% | 1008.7 hPa | 0 mm | - | 255 W/m² | - |
| 1777324934 | 27.78° C | 85% | 1008.7 hPa | 0 mm | - | 486 W/m² | - |
| 1777324631 | 27.22° C | 86% | 1008.8 hPa | 0 mm | - | 125 W/m² | - |
| 1777324330 | 27.22° C | 85% | 1009.1 hPa | 0 mm | - | 165 W/m² | - |
| 1777324026 | 27.22° C | 86% | 1009 hPa | 0 mm | - | 356 W/m² | - |
| 1777323724 | 27.22° C | 87% | 1009 hPa | 0 mm | - | 394 W/m² | - |
| 1777323421 | 27.22° C | 85% | 1009.2 hPa | 0 mm | - | 165 W/m² | - |
| 1777323118 | 27.22° C | 85% | 1009 hPa | 0 mm | - | 246 W/m² | - |
| 1777322816 | 26.67° C | 87% | 1009.5 hPa | 0 mm | - | 228 W/m² | - |
| 1777322514 | 26.67° C | 86% | 1009.1 hPa | 0 mm | - | 93 W/m² | - |
| 1777322210 | 27.22° C | 85% | 1009.3 hPa | 0 mm | - | 166 W/m² | - |
| 1777321908 | 27.22° C | 84% | 1009 hPa | 0 mm | - | 354 W/m² | - |
| 1777321604 | 27.22° C | 85% | 1009.2 hPa | 0 mm | - | 319 W/m² | - |
| 1777321301 | 27.22° C | 84% | 1009.1 hPa | 0 mm | - | 261 W/m² | - |
| 1777320998 | 27.22° C | 85% | 1009.3 hPa | 0 mm | - | 549 W/m² | - |
| 1777320696 | 27.22° C | 85% | 1009.2 hPa | 0 mm | - | 166 W/m² | - |
| 1777320393 | 27.78° C | 84% | 1009.2 hPa | 0 mm | - | 345 W/m² | - |
| 1777320090 | 27.78° C | 83% | 1009 hPa | 0 mm | - | 835 W/m² | - |
| 1777319787 | 27.22° C | 83% | 1009.1 hPa | 0 mm | - | 310 W/m² | - |
| 1777319484 | 27.22° C | 84% | 1009.4 hPa | 0 mm | - | 956 W/m² | - |
| 1777319181 | 27.22° C | 84% | 1009.3 hPa | 0 mm | - | 758 W/m² | - |
| 1777318878 | 27.78° C | 83% | 1009.4 hPa | 0 mm | - | 473 W/m² | - |
* Rain latest hour (hover to see other rain measurements)
** Current wind speed in m/s (hover to see current wind gust speed)